SCP
0 0 0 0 0 0 0 0 0 0 0 0 0 0 0 0 0 0 0 0 0 0 -0 -0 -0 0 0 0 -0 -0 0 0 0 0 0 0 0 0 0 0 0 0 0 0
0 0 0 0 0 0 0 0 0 0 0 0 0 0 0 0 0 0 0 0 0 0 -0 -0 -0 0 0 0 -0 -0 0 0 0 0 0 0 0 0 0 0 0 0 0 0
0 0 0 0 0 0 0 0 0 0 0 0 0 0 0 0 0 0 0 0 0 0 -0 -0 0 0 0 0 0 0 0 0 0 0 0 0 0 0 0 0 0 0 0 0
0 0 0 0 0 0 0 0 0 0 0 0 0 0 0 0 0 0 0 0 0 0 -0 -0 0 0 0 0 0 0 0 0 0 0 0 0 0 0 0 0 0 0 0 0
0 0 0 0 0 0 0 0 0 0 0 0 0 0 0 0 0 0 0 0 0 0 -0 0 0 0 0 0 0 0 0 0 0 0 0 0 0 0 0 0 0 0 0 0
0 0 0 0 0 0 0 0 0 0 0 0 0 0 0 0 0 0 0 0 0 0 -0 0 0 0 0 0 0 0 0 0 0 0 0 0 0 0 0 0 0 0 0 0
0 0 0 0 0 0 0 0 0 0 0 0 0 0 0 0 0 0 0 0 0 0 0 0 0 0 0 0 0 0 0 0 0 0 0 0 0 0 0 0 0 0 0 0
0 0 0 0 0 0 0 0 0 0 0 0 0 0 0 0 0 0 0 0 0 0 0 0 0 0 0 0 0 0 0 0 0 0 0 0 0 0 0 0 0 0 0 0
0 0 0 0 0 0 0 0 0 0 0 0 0 0 0 0 0 0 0 0 0 0 0 0 0 0 0 0 0 0 0 0 0 0 0 0 0 0 0 0 0 0 0 0
0 0 0 0 0 0 0 0 0 0 0 0 0 0 0 0 0 0 0 0 0 -0 0 0 0 0 0 0 0 0 0 0 0 0 0 0 0 0 0 0 0 0 0 0
0 0 0 0 0 0 0 0 0 0 0 0 0 0 0 0 0 0 0 0 0 0 0 0 0 0 0 0 0 0 0 0 0 0 0 0 0 0 0 0 0 0 0 0
0 0 0 0 0 0 0 0 0 0 0 0 -0 -0 -0 -0 0 0 0 0 0 0 0 0 0 0 0 0 0 0 0 0 0 0 0 0 0 0 0 0 0 0 0 0
0 0 0 0 0 0 0 0 0 0 0 -0 -0 -0 -0 0 0 0 0 0 0 0 0 0 0 0 0 0 0 0 0 0 0 0 0 0 0 0 0 0 0 0 0 0
0 0 0 0 0 0 0 0 0 0 0 0 0 0 0 0 0 0 0 0 0 0 0 0 0 0 0 0 0 0 0 0 0 0 0 0 0 0 0 0 0 0 0 0
0 0 0 0 0 0 0 0 0 0 0 0 0 0 0 0 0 0 0 0 0 -0 -0 -0 0 0 0 0 0 0 0 0 0 0 0 0 0 0 0 0 0 0 0 0
0 0 0 0 0 0 0 0 0 0 0 0 0 0 0 0 0 0 -0 -0 -0 -0 0 0 0 0 0 0 0 0 0 0 0 0 0 0 0 0 0 0 0 0 0 0
0 0 0 0 0 0 0 0 0 0 0 0 0 0 0 0 -0 -0 -0 -0 -0 -0 0 0 0 0 0 0 0 0 0 0 0 0 0 0 0 0 0 0 0 0 0 0
0 0 0 0 0 0 0 0 0 0 0 0 0 0 0 -0 -0 -0 -0 0 0 0 0 0 0 0 0 0 0 0 0 0 0 0 0 0 0 0 0 0 0 0 0 0
0 0 0 0 0 0 0 0 0 0 0 0 0 0 0 -0 -0 -0 0 0 0 0 0 0 0 0 0 0 0 0 0 0 0 0 0 0 0 0 0 0 0 0 0 0
0 0 0 0 0 0 0 0 0 0 0 0 0 0 0 -0 -0 0 0 0 0 0 0 0 0 0 0 0 0 0 0 0 0 0 0 0 0 0 0 0 0 0 0 0
0 0 0 0 0 0 0 0 0 0 0 0 0 0 0 0 0 0 0 0 0 0 0 0 0 0 0 0 0 0 0 0 0 0 0 0 0 0 0 0 0 0 0 0
0 0 0 0 0 0 0 0 0 0 0 0 0 0 0 0 0 0 0 0 0 0 0 0 0 0 0 0 0 0 0 0 0 0 0 0 0 0 0 0 0 0 0 0
0 0 0 0 0 0 0 0 0 0 0 0 0 0 0 0 0 0 0 0 0 0 0 0 0 0 0 0 0 0 0 0 0 0 0 0 0 0 0 0 0 0 0 0
0 0 0 0 0 0 0 0 0 0 0 0 0 0 0 0 0 0 0 0 0 0 0 0 0 0 0 0 0 0 0 0 0 0 0 0 0 0 0 0 0 0 0 0
0 0 0 0 0 0 0 0 0 0 0 0 0 0 0 0 0 0 0 0 0 0 0 0 0 0 0 0 0 0 0 0 0 0 0 0 0 0 0 0 0 0 0 0
0 0 0 0 0 0 0 0 0 0 0 0 0 0 0 0 0 0 0 0 0 0 0 0 0 0 0 0 0 0 0 0 0 0 0 0 0 0 0 0 0 0 0 0
0 0 0 0 0 0 0 0 0 0 0 0 0 0 0 0 0 0 0 0 0 0 0 0 0 0 0 0 0 0 0 0 0 0 0 0 0 0 0 0 0 0 0 0
Wind_Speed
8 6 5 7 9 11 13 11 9 9 11 10 6 4 3 2 2 2 2 2 1 1 0 1 2 2 2 2 2 3 3 3 4 4 4 5 5 5 5 5 5 5 5 6
8 8 8 11 11 12 13 13 14 14 14 9 6 4 3 2 2 2 2 2 1 1 1 1 2 2 2 2 3 3 3 4 4 4 5 5 5 5 5 5 5 5 5 6
5 5 6 12 13 15 13 12 12 15 13 6 5 5 3 2 2 2 2 2 1 1 1 1 2 2 2 2 3 3 4 4 5 5 6 6 6 6 5 5 6 5 5 5
3 3 11 8 5 10 12 12 11 9 7 6 5 3 2 1 1 2 2 2 2 2 1 2 2 2 3 3 2 3 4 5 5 6 6 7 6 6 6 5 5 5 5 5
3 6 8 6 5 5 6 8 7 7 6 4 1 1 2 0 2 3 3 2 2 1 1 2 2 2 3 3 3 3 4 5 5 6 6 7 7 6 6 6 6 6 5 5
5 6 7 3 2 1 1 5 4 4 3 2 1 2 2 2 4 4 4 3 2 1 1 2 2 2 3 3 3 4 4 5 5 5 6 7 7 7 6 6 6 5 5 5
9 8 7 3 2 4 4 4 1 2 1 1 2 2 2 4 4 4 3 2 1 1 1 2 2 2 3 3 4 4 4 5 5 5 6 7 6 5 5 5 6 5 5 4
7 8 7 1 3 4 2 2 3 3 2 2 2 3 4 4 3 2 1 1 1 1 1 2 2 2 3 4 4 4 4 5 6 5 5 6 5 5 5 5 5 5 5 5
5 5 1 1 2 1 2 2 2 2 3 3 2 2 2 2 1 0 0 0 0 1 2 3 3 2 3 4 4 4 4 5 5 5 5 5 5 5 5 4 4 4 4 5
3 4 2 1 1 2 1 1 1 2 2 2 1 1 0 0 1 1 0 0 0 1 2 3 3 3 3 4 4 4 5 5 5 5 5 5 4 4 4 4 4 4 4 5
5 4 2 3 2 1 1 1 1 1 1 0 1 1 1 1 2 1 0 1 0 1 2 3 3 3 3 3 3 4 4 4 4 4 5 5 4 4 4 4 4 5 4 3
5 3 3 3 2 1 1 2 1 1 1 1 1 2 1 1 1 1 1 1 0 1 2 3 3 3 3 3 2 3 4 4 3 3 4 4 4 5 6 7 10 10 9 8
5 3 3 3 2 1 1 1 1 0 1 1 0 0 1 1 1 1 1 1 1 2 2 3 3 4 3 3 2 3 3 4 3 3 4 4 4 4 5 7 8 9 9 10
3 3 3 2 2 1 1 1 1 1 0 0 0 0 0 1 1 1 1 1 1 1 2 3 3 4 3 3 3 3 3 4 4 3 3 3 4 4 4 5 6 5 7 9
2 2 2 0 1 1 1 1 0 0 0 0 0 1 1 0 1 1 1 1 1 2 2 3 3 4 3 3 3 4 3 3 3 3 3 3 3 3 4 4 4 5 5 6
2 1 0 1 1 1 1 1 1 1 1 1 1 1 1 0 1 1 1 1 1 2 3 3 3 4 3 3 3 3 3 6 6 3 3 3 3 3 3 3 4 4 5 5
1 2 1 1 1 0 1 1 1 1 1 1 0 1 1 1 1 1 1 1 1 2 2 3 3 4 3 3 3 3 2 3 6 4 3 3 3 3 3 3 3 4 4 6
0 0 0 1 1 1 1 1 1 1 1 0 0 1 0 1 1 2 1 1 1 2 2 3 3 3 3 3 3 2 2 2 2 2 3 3 3 3 3 3 3 4 4 5
3 3 3 3 2 2 1 1 1 1 1 1 1 0 0 1 1 1 1 1 2 3 3 3 6 4 3 4 4 2 2 2 2 2 2 4 4 3 3 3 3 3 4 4
4 4 4 4 4 3 2 2 2 2 1 1 1 1 1 1 1 1 1 1 1 2 3 4 4 3 3 4 5 2 2 2 2 2 3 3 3 3 3 3 3 4 4 4
4 4 4 3 3 3 3 2 2 1 2 2 1 1 1 2 2 1 1 2 3 3 3 5 3 3 3 3 4 2 2 2 2 2 2 3 3 3 3 3 3 4 4 4
3 3 3 3 3 3 3 2 2 2 2 2 2 1 1 2 2 2 1 2 3 5 3 2 2 4 5 5 2 2 2 2 2 2 2 2 3 3 3 3 3 4 3 3
2 2 2 2 2 2 3 3 2 2 1 1 1 1 1 2 1 1 3 2 2 5 4 2 4 7 7 4 2 2 2 2 2 2 2 2 2 3 3 3 3 3 3 3
2 3 2 2 2 2 2 2 2 1 1 1 1 1 1 2 2 2 2 4 6 6 3 5 8 8 6 2 2 2 2 2 2 2 2 2 2 2 3 3 3 3 3 3
2 2 2 2 1 1 1 1 1 1 1 1 1 1 1 1 1 2 2 3 5 6 3 5 8 8 4 2 2 2 2 2 2 2 2 2 2 2 3 3 3 2 2 3
1 1 1 1 1 1 1 1 1 1 1 2 2 2 2 1 2 2 2 2 3 5 3 3 3 4 2 2 2 2 2 3 3 3 2 2 3 3 3 3 3 2 2 2
1 1 1 1 1 1 1 1 1 1 1 2 2 2 2 2 2 2 3 2 3 2 2 2 2 2 2 2 2 2 2 2 2 2 2 2 2 2 2 3 2 2 2 2
Wind_Direction
260 268 246 245 236 225 226 228 235 249 251 255 251 253 242 235 191 171 181 166 159 160 340 340 348 350 344 339 344 340 335 325 306 301 299 299 294 292 292 289 288 281 280 276
254 252 251 252 244 238 238 238 243 254 259 258 272 267 250 230 201 208 206 174 151 129 23 342 334 337 338 335 332 334 327 316 313 307 301 298 293 289 286 286 284 282 282 282
246 240 265 254 232 230 232 231 234 246 251 251 254 258 256 234 198 197 197 143 112 85 37 346 334 334 328 320 328 329 319 317 319 316 310 300 296 295 289 286 287 282 278 281
241 221 238 243 218 223 234 241 236 242 242 229 235 256 280 267 181 171 135 102 78 58 20 346 338 338 331 328 328 320 316 316 318 319 315 312 302 294 291 289 289 278 275 276
215 236 261 263 238 211 223 249 234 234 239 238 226 305 296 160 127 125 109 102 99 85 25 343 332 335 334 325 320 316 312 312 314 316 315 313 306 301 297 294 291 280 277 281
214 230 240 243 191 137 111 267 250 213 208 195 141 220 234 122 99 89 83 79 76 59 20 336 323 339 329 314 316 310 309 310 313 316 313 308 306 304 303 297 293 289 283 282
223 237 255 257 158 125 180 238 66 107 136 159 181 200 128 95 83 83 80 70 58 34 339 311 318 331 313 311 309 310 318 319 315 314 313 309 307 308 309 307 305 298 287 285
210 227 242 182 143 177 210 57 52 56 67 76 67 63 75 78 80 82 80 50 10 343 316 317 328 334 315 310 316 329 328 320 315 314 316 318 315 313 314 314 309 307 304 301
210 224 266 123 147 101 60 55 39 48 63 72 73 75 67 69 74 91 201 267 352 342 323 323 330 336 317 317 332 329 322 316 315 318 318 318 318 319 318 320 315 312 313 311
246 251 249 218 29 43 44 86 69 59 59 64 80 86 76 269 266 254 250 293 4 346 326 321 330 335 320 323 329 323 318 316 317 319 322 324 323 321 318 318 316 313 313 313
257 261 264 240 248 280 327 8 44 43 61 109 166 237 250 253 263 258 266 283 324 316 305 308 319 319 322 323 329 325 318 317 320 323 322 320 320 317 314 308 308 309 308 307
245 255 253 259 257 223 217 228 235 229 218 240 207 222 230 243 256 247 245 248 272 292 297 305 313 315 320 324 330 323 315 317 319 320 318 317 318 320 320 316 320 321 321 317
259 274 260 273 288 256 235 251 268 244 213 260 291 211 230 246 248 248 251 252 256 274 288 302 310 311 316 322 326 317 309 311 312 315 314 314 318 320 321 326 327 328 329 330
287 290 269 267 281 320 48 46 34 356 331 141 137 163 208 250 269 275 270 265 282 300 300 304 308 311 317 325 324 313 307 306 309 305 304 306 311 314 315 319 324 329 331 334
316 311 260 272 60 48 60 82 95 265 104 93 113 153 153 221 277 292 314 334 332 313 305 310 311 314 323 325 319 312 311 308 305 304 304 305 310 313 315 318 318 321 328 334
294 301 121 130 141 118 108 161 186 208 169 140 103 79 68 50 326 321 330 340 326 310 310 315 313 314 320 323 318 310 305 312 317 316 314 313 315 317 319 321 322 324 328 332
251 245 231 209 219 183 133 121 140 138 117 113 109 76 66 37 326 311 314 323 312 302 311 318 312 316 318 324 318 310 308 307 315 318 314 314 313 312 313 316 319 321 324 329
282 233 138 162 152 128 103 89 94 101 122 159 126 118 158 229 270 287 299 321 331 328 329 322 319 322 322 323 319 309 305 307 315 313 315 316 314 310 310 314 318 319 322 327
46 53 61 65 74 94 97 86 81 69 52 61 84 130 265 281 285 292 319 342 331 319 322 324 328 336 329 327 331 316 312 314 315 311 311 315 321 321 322 321 320 321 323 327
57 60 65 61 55 60 62 54 54 49 36 36 38 17 343 326 327 334 348 324 300 298 307 322 327 324 321 320 328 318 309 306 305 311 317 316 316 319 324 327 329 328 328 328
63 62 65 67 61 52 46 43 47 37 17 20 27 344 315 323 334 339 334 312 310 321 322 323 327 318 316 316 322 319 312 310 309 308 313 317 318 321 326 327 327 326 327 331
60 63 62 63 64 47 31 31 36 30 19 15 10 6 357 339 338 338 313 285 305 324 330 318 312 311 317 324 324 318 314 312 311 311 311 315 316 319 323 325 325 325 329 330
57 59 57 55 60 47 28 23 23 26 14 1 353 339 325 313 316 312 307 312 315 322 328 315 314 317 323 329 319 315 313 311 309 307 307 308 309 312 315 318 320 323 326 327
54 53 51 49 53 52 29 7 14 20 7 345 329 314 311 321 325 316 299 315 324 324 324 317 320 323 326 327 319 318 315 312 306 302 302 304 305 307 311 314 319 322 323 327
54 49 43 41 36 26 8 2 10 3 355 342 331 325 316 295 288 305 311 309 316 325 326 323 325 327 331 323 325 319 314 310 308 308 305 307 308 309 308 310 314 318 323 325
44 37 25 13 356 343 336 340 343 341 348 342 340 342 340 330 316 311 311 313 315 322 324 316 316 320 323 321 318 313 307 309 313 314 309 304 301 301 303 307 310 313 317 320
29 28 27 12 360 353 349 350 342 333 335 331 327 330 332 330 329 326 319 316 318 318 314 316 317 319 322 321 317 312 308 305 301 298 299 300 300 300 304 307 311 314 317 321